{"data":{"norad_id":35496,"epoch":"2026-05-24T20:22:19.005312Z","epoch_age_seconds":91566,"freshness":"FRESH","line1":"1 35496U 09035A   26144.84883108 -.00000060  00000+0  00000+0 0  9996","line2":"2 35496   5.1710  48.8040 0002789  12.0352  16.1717  1.00272655 61903","mean_motion":1.00272655,"eccentricity":0.0002789,"inclination_deg":5.171,"raan_deg":48.804,"arg_perigee_deg":12.0352,"mean_anomaly_deg":16.1717,"bstar":0,"rev_number":6190,"period_min":1436.0844439593,"perigee_km":35774.591394649,"apogee_km":35798.110746095,"semimajor_km":42164.488070372,"source":"CELESTRAK","updated_at":"2026-05-25T13:38:13.865020Z"}}